EHI
12 10 8 7 6 5 5 5 4 2 1 1 1 0 0 0 0 1 1 1 0 1 4 7 7 6 7 9 10 11 13 13 10 8 10 14 15 12 9 8 7 7 7
13 11 8 6 5 5 6 6 5 3 2 2 2 2 1 1 1 1 1 1 1 2 6 9 9 9 11 12 12 11 12 12 11 9 10 14 14 11 9 8 7 7 6
12 10 8 5 5 5 6 8 9 7 5 4 4 5 5 4 4 3 3 2 3 4 8 11 11 12 14 15 14 13 12 11 11 10 12 14 12 9 9 7 5 6 6
12 11 10 8 8 8 8 10 11 11 8 7 7 8 8 7 7 6 5 5 4 5 8 10 10 11 13 13 14 15 14 11 11 12 13 12 10 10 9 6 5 6 7
14 14 15 15 14 13 13 12 12 12 10 10 10 9 8 7 6 6 6 6 6 7 9 11 10 9 9 8 10 12 12 12 12 13 13 11 11 11 9 7 5 6 7
18 17 18 19 19 19 18 16 14 13 12 13 14 12 9 6 4 3 5 7 10 12 13 13 11 10 8 7 5 5 7 8 10 11 11 10 11 11 9 6 5 5 6
20 18 18 20 22 23 21 20 17 15 15 16 16 14 10 6 2 1 3 7 13 16 16 15 14 12 11 10 7 4 4 5 5 7 8 10 10 10 9 6 5 4 4
19 18 19 21 23 24 23 23 21 19 18 18 16 12 9 7 3 1 2 6 12 15 15 15 15 13 11 10 10 9 9 7 4 3 5 7 8 8 7 5 4 4 4
18 18 19 21 22 22 23 24 23 22 21 19 15 12 10 9 5 1 2 6 9 12 13 14 13 12 8 6 8 12 12 9 4 2 2 3 4 4 4 4 4 4 4
15 15 18 22 23 23 23 23 22 22 21 19 16 14 13 10 6 2 2 6 9 10 11 12 10 8 4 2 5 9 9 7 5 4 2 2 1 2 2 3 4 3 3
14 16 21 26 25 23 22 21 20 19 18 18 16 15 13 9 5 2 2 5 7 8 10 11 8 4 1 1 2 5 5 3 5 7 6 4 3 2 3 3 4 4 4
17 20 25 28 25 21 21 20 18 16 16 16 15 14 12 9 5 1 1 2 4 5 8 8 5 1 0 0 0 1 1 2 4 7 7 5 4 4 4 4 5 4 4
22 25 28 28 24 20 20 19 16 15 15 15 14 13 12 9 6 2 0 0 1 3 4 4 2 0 0 0 0 0 0 1 3 4 4 4 4 5 6 6 5 4 4
25 25 26 26 24 22 19 16 14 14 14 13 13 12 11 8 6 4 2 1 1 1 1 2 1 1 1 1 0 0 0 1 2 2 1 3 5 6 6 5 4 4 4
25 23 21 21 22 20 16 13 11 11 11 11 11 11 9 6 5 5 4 3 2 2 2 3 3 3 3 2 1 1 1 0 0 0 0 2 3 5 4 4 4 5 6
24 21 18 16 17 16 14 11 8 7 7 6 7 8 7 4 3 2 2 2 2 2 3 4 5 5 4 4 3 3 2 1 1 0 1 1 2 2 3 4 5 6 6
21 19 15 13 13 13 11 11 9 7 4 3 3 4 4 2 1 0 0 0 1 1 3 4 5 5 6 6 5 4 3 3 2 1 1 1 0 1 2 4 5 5 5
17 15 12 11 11 10 10 11 11 9 5 3 2 1 1 1 0 0 0 1 1 1 3 4 4 4 5 6 6 4 3 3 2 1 1 1 0 0 0 2 3 3 3
11 9 8 9 10 10 10 10 11 9 7 6 4 2 0 0 0 0 1 2 2 3 3 3 3 3 4 5 5 4 3 3 3 1 1 1 0 0 0 0 1 1 1
7 5 6 9 10 10 10 10 10 9 7 6 6 4 2 1 1 1 1 2 3 3 3 2 3 3 3 4 5 4 3 3 3 2 1 1 0 0 0 0 0 0 0
5 4 5 8 10 10 10 9 9 8 7 6 7 5 2 2 2 2 1 2 3 3 3 3 3 3 3 3 3 3 3 3 3 3 2 1 1 1 0 0 0 0 0
4 4 5 8 9 9 9 8 8 8 7 6 6 4 2 2 3 2 2 2 3 3 3 3 3 3 2 1 1 2 3 3 3 3 3 2 2 1 0 0 0 0 0
2 3 4 6 8 7 7 7 7 8 7 6 5 3 1 1 3 3 2 2 2 2 2 2 2 1 1 0 0 1 2 3 3 3 3 2 1 1 0 0 0 0 0
2 2 2 3 4 5 5 5 6 6 5 4 4 3 2 1 2 2 2 1 1 1 1 1 1 0 0 0 0 0 1 2 2 3 3 2 1 0 0 0 0 0 0
2 1 1 1 2 3 3 4 5 5 4 3 3 3 3 2 1 1 1 0 0 0 0 0 0 0 0 0 0 0 0 1 1 1 2 1 1 0 0 0 0 0 0
1 0 0 1 2 2 2 3 4 4 3 3 3 4 4 3 2 2 1 0 0 0 0 0 0 0 0 0 0 0 0 0 0 0 1 0 0 0 0 0 0 0 0
Wind_Speed
9 9 8 7 7 7 6 5 5 4 4 4 4 4 3 3 3 3 3 3 3 3 3 3 4 4 4 4 3 4 4 5 5 5 2 1 2 3 2 3 4 5 5
9 8 8 7 7 7 6 6 5 5 5 4 4 4 4 3 3 3 3 3 3 4 4 4 4 3 4 4 3 4 4 4 5 6 4 3 3 4 3 5 4 4 4
9 8 8 7 7 7 6 6 5 5 4 4 4 4 4 4 4 4 4 4 4 4 4 4 4 4 4 3 4 4 4 4 4 5 5 3 3 3 4 5 5 4 5
8 8 8 7 7 6 6 6 6 6 5 5 5 5 5 4 4 4 4 4 5 5 4 4 4 4 4 4 4 4 4 4 4 5 4 3 3 2 4 4 4 3 4
7 7 7 6 6 6 5 5 5 6 6 5 5 5 5 5 3 3 4 5 5 5 5 4 4 2 3 4 4 3 4 4 4 4 4 4 3 3 4 4 4 4 4
7 6 6 6 6 5 5 5 5 5 5 5 5 4 5 3 1 1 4 4 4 5 4 4 4 4 3 3 4 5 5 5 5 5 4 4 4 4 4 5 4 4 4
6 6 6 6 5 5 5 5 5 6 6 5 5 5 4 3 2 2 4 5 5 4 4 4 4 1 2 3 3 5 5 5 5 6 6 5 5 4 5 6 5 5 5
6 5 5 5 5 5 5 5 5 5 5 5 5 5 4 3 4 3 4 6 5 4 4 4 4 3 2 3 4 4 4 3 4 5 4 5 5 4 5 6 6 6 6
6 5 5 5 5 4 4 4 4 4 4 4 4 4 4 3 4 4 4 5 4 5 4 3 3 3 2 4 4 4 4 3 3 3 4 4 4 4 5 5 4 5 5
5 5 5 5 5 5 4 4 3 3 3 3 3 4 5 4 4 5 5 5 4 4 3 3 2 1 1 2 4 3 4 4 4 3 3 4 5 4 6 6 5 5 5
4 4 5 5 5 5 4 3 3 3 3 3 3 4 4 3 4 5 5 4 4 4 4 3 1 2 2 3 5 4 4 5 5 4 3 3 2 3 4 4 4 4 5
4 4 5 5 4 4 4 3 3 3 4 4 3 3 3 3 3 4 6 6 6 4 4 3 1 1 3 5 4 2 4 5 4 3 3 3 3 2 2 2 3 3 4
4 4 4 4 4 3 4 4 4 4 4 3 3 3 3 2 3 5 6 6 6 5 3 1 2 3 4 4 4 4 4 4 3 3 3 3 3 3 3 2 3 3 4
4 4 4 4 4 3 3 3 3 3 3 3 3 3 2 2 2 2 3 3 5 5 4 2 5 6 6 3 3 4 3 2 3 4 3 3 3 3 3 2 2 2 3
4 3 4 4 4 4 3 1 2 2 1 2 2 2 2 2 0 1 3 3 3 2 3 4 3 2 3 3 3 3 3 2 3 3 3 3 3 3 3 2 2 3 3
4 4 4 3 4 4 4 3 2 1 2 1 1 2 0 1 2 1 2 2 2 3 4 4 3 3 3 3 2 2 2 2 2 3 3 3 3 3 3 3 3 3 4
3 3 3 3 3 4 4 3 3 3 2 2 2 1 1 2 3 3 2 2 3 4 5 4 3 3 3 3 3 3 3 2 3 3 3 3 4 3 3 3 3 4 4
3 3 3 3 3 3 3 3 3 3 3 2 3 4 3 4 4 4 4 3 3 4 3 3 3 3 3 3 3 3 3 3 3 3 3 3 4 4 4 4 4 4 4
3 2 2 2 3 3 3 3 3 3 2 2 2 3 5 5 6 6 6 4 2 3 3 3 3 3 3 3 4 4 4 3 3 4 4 4 4 4 4 5 4 4 5
3 3 3 3 3 3 3 3 3 3 3 3 3 2 3 3 3 3 4 3 3 2 3 3 3 4 4 4 4 4 4 4 4 4 4 3 3 4 4 5 5 4 4
3 3 5 4 3 2 3 3 3 3 3 3 2 2 2 3 2 2 2 2 2 3 3 3 3 4 3 3 4 4 5 4 3 3 3 3 4 4 4 4 4 4 4
3 3 3 3 3 3 2 3 3 3 3 3 2 3 4 4 2 2 2 2 2 2 2 3 3 3 3 3 3 4 4 4 3 3 4 4 4 4 4 4 4 4 5
4 4 3 3 3 3 4 3 3 3 3 3 3 2 3 3 2 2 2 2 2 2 2 2 3 3 3 3 3 3 4 3 3 4 5 5 4 4 4 4 5 5 4
4 4 4 3 3 4 4 3 3 3 3 3 3 3 3 3 3 2 2 2 2 2 2 2 3 4 4 4 3 3 3 4 5 4 6 6 5 5 4 4 5 5 5
4 4 4 4 4 3 3 3 3 3 3 3 2 2 2 2 2 2 2 1 2 2 3 3 2 3 3 4 4 3 2 3 4 6 5 5 6 5 5 5 5 5 5
4 4 4 3 3 3 3 3 3 3 3 2 2 2 2 2 2 2 1 1 2 2 2 2 3 3 4 3 3 4 2 2 3 6 6 5 6 5 5 5 6 5 5
Wind_Direction
189 192 195 194 198 204 207 208 210 210 202 209 214 216 219 225 222 229 245 233 244 257 265 267 274 289 286 284 276 265 260 262 269 279 275 241 238 264 241 251 236 228 194
186 188 194 196 198 204 205 203 203 207 209 207 211 216 223 223 229 231 247 250 255 258 265 272 274 269 273 281 288 280 272 263 261 269 273 254 242 245 242 249 248 238 237
181 187 191 196 195 201 205 203 202 205 210 213 215 219 224 225 227 234 240 251 259 265 269 270 273 276 276 280 277 281 278 270 264 262 261 260 252 246 249 247 245 246 254
181 188 190 194 195 198 201 205 204 206 211 216 217 222 225 223 228 236 242 248 257 264 268 270 271 271 271 274 268 272 281 283 271 265 265 256 251 243 250 254 249 233 252
182 190 191 192 194 199 200 208 205 209 212 212 217 219 224 221 223 235 246 247 256 262 263 264 262 272 301 290 294 294 284 279 277 270 266 264 266 265 262 263 263 256 237
186 193 190 193 196 199 203 206 205 207 210 211 215 214 220 223 148 234 267 259 255 257 262 262 246 221 219 243 282 291 290 280 286 284 272 273 273 269 271 271 272 265 261
184 192 192 195 199 203 208 204 206 208 207 208 211 207 211 208 170 204 249 263 259 261 265 269 273 265 237 255 245 240 255 257 265 276 277 277 277 275 275 266 264 273 277
181 190 191 196 199 200 203 206 209 211 208 206 205 205 213 203 173 204 241 241 250 254 257 261 272 287 303 301 277 271 270 265 256 258 273 276 279 280 265 265 270 260 258
183 192 193 194 195 196 197 199 204 208 206 204 203 207 216 211 180 199 239 245 243 249 250 252 260 272 338 308 273 272 277 279 257 262 279 280 287 277 276 267 262 262 266
189 195 195 195 198 201 195 197 199 204 206 212 211 217 220 223 184 193 227 248 247 254 248 234 196 264 299 277 269 275 280 291 299 272 251 242 245 238 233 246 259 265 272
186 190 189 188 194 191 188 193 194 202 204 215 218 219 219 218 185 188 217 250 256 261 268 264 203 141 237 255 268 276 292 291 273 272 270 264 252 247 236 237 252 267 276
180 184 181 182 193 177 180 187 193 201 202 208 214 224 213 203 194 189 209 235 264 261 272 286 329 169 240 248 251 273 279 271 265 269 272 277 277 275 269 261 256 263 277
183 186 181 181 184 182 184 187 195 204 217 212 214 222 222 204 181 191 210 226 244 257 276 310 275 229 235 226 204 225 244 254 273 275 274 277 281 287 279 258 236 236 246
186 184 176 178 181 177 191 195 201 206 218 222 228 232 233 212 198 186 218 217 224 239 259 224 212 216 229 231 209 217 240 266 279 277 282 286 285 274 270 276 271 260 261
182 186 192 190 182 182 187 195 214 195 239 256 259 256 250 237 147 304 254 243 251 258 268 249 240 226 235 240 234 230 240 241 253 272 276 278 279 276 270 269 267 259 262
185 192 200 195 182 186 179 168 88 115 124 164 319 291 282 84 126 186 250 255 239 230 247 244 245 251 255 260 262 252 240 247 259 265 272 276 277 277 273 266 269 265 264
202 204 215 205 192 194 192 191 179 161 156 163 178 181 182 130 154 186 207 215 234 225 236 246 253 258 261 263 268 268 262 254 261 263 271 275 278 279 279 274 269 266 264
206 193 214 217 212 204 205 203 199 195 185 182 167 167 177 184 187 192 194 202 211 215 242 260 266 266 266 268 273 278 276 263 252 258 265 272 278 285 287 282 277 278 279
210 201 213 227 215 204 203 203 199 197 192 185 172 158 175 188 193 199 202 230 235 241 253 261 269 276 277 278 279 275 272 269 266 266 265 268 272 277 282 283 279 273 275
199 181 216 229 216 206 202 203 202 197 198 196 196 179 166 200 208 192 205 235 255 264 271 272 272 274 276 278 276 274 272 268 264 261 267 270 273 275 277 278 285 284 277
202 180 194 220 217 214 210 210 211 210 208 208 197 150 209 236 233 231 231 237 250 263 272 277 278 275 270 268 271 274 276 277 275 276 279 280 282 280 279 279 280 279 278
204 202 210 211 202 207 215 215 213 209 207 213 206 170 187 234 244 251 251 255 262 270 278 280 279 278 279 277 274 276 276 279 280 280 274 268 267 270 270 270 269 273 271
209 206 208 205 205 193 208 214 211 211 210 212 217 210 207 232 243 253 262 274 277 271 271 273 278 279 280 279 279 278 279 282 284 285 280 271 269 269 269 272 275 275 275
210 209 210 207 205 213 210 208 209 215 216 215 219 221 219 227 242 254 266 269 274 274 273 272 276 282 282 278 274 274 291 307 296 280 276 277 274 268 266 268 271 275 274
212 210 210 207 207 211 211 212 213 215 219 216 221 225 228 239 250 260 274 275 277 286 289 286 287 291 291 294 298 310 352 331 301 292 267 264 268 269 270 271 271 271 271
211 208 210 212 214 210 210 215 217 219 221 222 228 232 237 242 254 263 272 285 294 298 295 288 290 294 293 295 314 330 330 298 290 292 275 264 266 268 270 267 267 264 265